Location: Dam Number 46
(32.0435°N, 96.9000°W)
Time: 03:57:27
(UTC+00:00)

Daily predictions for brighter satellites

Satellite Brightness Start Highest point End
(mag) Time Altitude Azimuth Time Altitude Azimuth Time Altitude Azimuth
CZ-3B R/B 4.0 01:17:20 10° WNW 01:21:26 53° SW 01:34:20 10° SSE
CZ-4B R/B 3.7 01:17:13 10° S 01:22:12 76° WSW 01:27:06 10° NNW
APEX 2.6 01:21:42 10° NNW 01:24:50 57° ENE 01:27:43 10° SSE
CZ-4B R/B 4.2 01:23:51 10° SE 01:28:35 28° ENE 01:33:17 10° NNE
Cosmos 1674 Rocket 3.7 01:27:27 10° N 01:31:50 56° E 01:36:11 10° SSE
Cosmos 1825 3.4 01:29:31 10° NNE 01:32:02 19° ENE 01:34:23 11° ESE
USA 234 4.1 01:28:44 10° E 01:34:30 35° NE 01:40:16 10° NNW
NOSS 3-1 (C) 3.3 01:30:37 10° S 01:34:49 36° ESE 01:39:27 10° NE
Meteor 2-11 Rocket 4.4 01:30:57 10° N 01:37:03 72° E 01:43:05 10° SSE
Hubble Space Telescope 1.2 01:34:42 10° WSW 01:38:31 45° S 01:41:39 14° ESE
Cosmos 2082 Rocket 3.1 01:33:57 10° NNW 01:39:28 52° WSW 01:44:57 10° S
Resurs 1-3 3.7 01:37:18 10° SSE 01:41:31 52° ENE 01:45:44 10° N
[s.n.70599] 2.5 01:42:11 10° NW 01:44:41 56° NNE 01:46:07 21° ESE
IKONOS-2 4.4 01:45:39 10° NNE 01:49:52 86° E 01:54:04 10° SSW
Okean O Rocket 2.8 01:49:28 17° ESE 01:51:34 24° ENE 01:55:04 10° NNE
Cosmos 1025 Rocket 3.7 01:48:42 10° NNE 01:52:40 33° E 01:55:30 16° SE
ATLAS 3B R/B 3.3 01:50:00 10° S 01:55:57 34° ESE 02:02:19 10° NE
Resurs 01 Rocket 2.6 01:55:01 19° ESE 01:57:11 29° ENE 02:00:59 10° NNE
YAOGAN 1 4.3 01:53:41 10° SSW 01:57:34 33° W 02:01:28 10° NNW
Cosmos 2218 Rocket 4.4 01:52:25 10° N 01:58:28 43° E 02:03:55 12° SSE
Cosmos 1346 Rocket 2.6 01:56:10 10° S 02:00:00 80° E 02:03:49 10° N
SJ-6B 2.8 01:57:53 10° S 02:01:48 82° W 02:05:46 10° NNW
USA 281 4.1 01:59:34 18° ESE 02:03:09 29° ENE 02:08:39 10° N
Cosmos 1975 Rocket 4.2 02:01:16 10° NNE 02:04:43 23° ENE 02:05:11 23° E
Cosmos 1302 Rocket 4.2 01:59:37 10° SSW 02:04:52 76° WNW 02:10:08 10° NNE
Cosmos 1328 3.8 02:06:23 10° N 02:10:05 52° E 02:11:46 28° SE
OAO 3 Rocket 3.6 02:05:37 10° W 02:10:26 60° N 02:13:29 22° ENE
Cosmos 1782 Rocket 3.4 02:09:13 10° S 02:13:33 86° E 02:17:56 10° N
PAYLOAD B 4.4 02:10:23 10° S 02:15:52 74° WSW 02:21:26 10° NNW
Meteor 1-21 Rocket 4.4 02:10:06 10° N 02:15:57 59° E 02:20:11 19° SSE
USA 186 1.5 02:16:17 40° SSE 02:17:16 80° ENE 02:20:19 10° N
DELTA 2 R/B (1) 3.6 02:11:58 10° WNW 02:17:35 75° NNE 02:20:22 31° ESE
Cosmos 1892 2.9 02:15:07 10° NNW 02:18:39 62° W 02:21:37 14° S
CZ-4 R/B 2.2 02:18:12 10° S 02:22:04 49° W 02:25:54 10° NNW
ATLAS 5 CENTAUR R/B 0.6 02:18:56 10° SSW 02:22:15 82° ESE 02:25:39 10° NNE
Delta 2 Rocket 4.3 02:17:34 10° WSW 02:24:15 52° S 02:26:51 32° SE
Cosmos 1455 3.3 02:22:49 10° SSW 02:26:13 42° W 02:29:37 10° N
Cosmos 864 Rocket 4.4 02:22:30 10° N 02:28:45 81° E 02:34:03 15° S
Cosmos 968 Rocket 3.5 02:23:54 10° NNW 02:29:00 78° WSW 02:32:17 23° S
Feng Yun 1-1 Rocket 4.2 02:28:09 18° SSE 02:32:14 87° WSW 02:37:50 10° NNW
CSL-04 Debris 4.1 02:34:11 23° S 02:37:42 85° WSW 02:43:10 10° NNW
Cosmos 1300 Rocket 4.1 02:35:44 10° SSW 02:39:59 57° W 02:44:18 10° N
CSL-04 Rocket 3.8 02:45:00 26° S 02:48:11 74° WSW 02:53:42 10° NNW
Timation 1 Rocket 4.5 02:43:06 10° NNW 02:49:01 70° WSW 02:51:45 33° S
In-Cosmos 22 Rocket 4.0 02:48:18 10° N 02:53:44 78° E 02:54:49 58° SSE
SJ 16-02 1.3 02:49:37 10° NNW 02:53:56 76° WSW 02:54:07 74° SW
CZ-4C R/B 4.2 02:54:13 10° N 02:56:34 37° NNW 02:56:34 37° NNW
NOSS 3-1 (A) 2.8 02:56:59 10° SSW 03:01:39 81° WNW 03:06:59 10° NNE
Cosmos 2098 Rocket 4.3 02:57:00 10° SSW 03:02:37 51° W 03:07:17 10° N
Okean-O 2.9 03:06:02 60° N 03:06:02 60° N 03:09:39 10° N
Terra 3.9 03:09:26 16° NNE 03:09:26 16° NNE 03:10:46 10° NNE
Atlas Centaur 2 3.9 03:04:36 10° SW 03:05:22 13° SW 03:05:22 13° SW
USA 234 3.5 03:15:42 48° S 03:17:12 59° SW 03:23:39 10° NW
Hubble Space Telescope 2.9 03:15:09 10° W 03:16:32 20° WSW 03:16:32 20° WSW
Cosmos 1833 4.2 03:14:20 10° NNW 03:19:57 74° WSW 03:19:59 74° WSW
Okean O Rocket 3.6 03:26:49 21° WSW 03:27:44 22° W 03:31:07 10° NW
Milstar 3 4.4 03:17:16 10° WSW 03:27:57 74° S 03:37:38 36° E
Resurs 01 Rocket 3.9 03:32:30 17° WSW 03:33:35 19° W 03:36:43 10° NW
ATLAS 3B R/B 3.9 03:40:01 10° WSW 03:46:28 41° NW 03:53:24 10° NNE
USA 281 3.9 03:46:26 42° SW 03:47:20 44° WSW 03:53:33 10° NW
Centaur D-1AR AC-36 4.0 03:47:17 10° WSW 04:13:23 21° E 04:42:03 10° E
Centaur D-1AR AC-36 4.0 03:47:16 10° WSW 04:13:23 21° E 04:42:03 10° E
Cosmos 2297 Rocket 4.5 04:39:55 10° NNW 04:41:24 19° N 04:41:24 19° N
Resurs 1-4 Rocket 4.3 08:28:43 10° N 08:30:10 19° N 08:30:10 19° N
H-2A R/B 4.3 08:46:24 40° SE 08:46:24 40° SE 09:06:13 10° ESE
Cosmos 2219 Rocket 4.4 08:55:50 15° NNW 08:55:50 15° NNW 08:57:11 10° N
Cosmos 2278 Rocket 4.3 08:48:45 10° N 08:53:09 23° ENE 08:57:31 10° ESE
SL-16 R/B 4.4 09:03:20 14° ESE 09:05:08 17° E 09:08:34 10° ENE
CZ-2C R/B 4.2 09:09:26 10° NE 09:13:47 27° E 09:14:38 26° ESE
BREEZE-M DEB (TANK) 4.2 09:13:45 71° W 09:14:37 78° NW 09:40:02 10° NE
ADEOS II 3.8 09:15:23 10° N 09:17:38 24° NNW 09:17:38 24° NNW
Cosmos 1092 Rocket 3.9 09:24:59 79° E 09:24:59 79° E 09:31:05 10° N
Cosmos 2026 Rocket 3.8 09:32:11 85° SSW 09:32:22 89° W 09:38:43 10° N
CZ-2D R/B 4.3 09:29:34 10° NNW 09:30:50 15° NNW 09:30:50 15° NNW
BREEZE-M DEB (TANK) 3.7 09:34:04 57° NW 09:34:04 57° NW 09:37:40 10° NE
Envisat 3.3 09:29:47 10° NNE 09:34:48 61° E 09:34:51 61° ESE
SL-16 R/B 2.8 09:36:56 54° NW 09:36:56 54° NW 09:41:51 10° NNW
EO 1 Delta rocket 4.3 09:38:16 10° N 09:41:50 54° N 09:41:50 54° N
Meteor 1-27 Rocket 4.2 09:46:40 46° NW 09:46:40 46° NW 09:51:17 10° N
Meteor 2-4 Rocket 3.8 09:48:37 46° SSE 09:50:05 67° E 09:55:30 10° NNE
CZ-4 R/B 4.1 09:46:06 10° N 09:49:59 57° NNW 09:49:59 57° NNW
Cosmos 1943 Rocket 3.5 09:47:10 10° N 09:52:29 40° ENE 09:57:46 10° SE
Thor Agena Rocket 3.7 09:47:34 10° NNE 09:52:35 66° ESE 09:53:50 48° SSE
Cosmos 1627 Rocket 4.5 09:53:01 59° W 09:53:24 60° W 09:59:41 10° N
YAOGAN 6 4.1 09:51:05 10° NNE 09:53:02 31° NE 09:53:02 31° NE
H-2A R/B 4.4 09:52:40 10° NE 09:56:19 20° E 10:00:01 10° SE
Cosmos 2237 Rocket 2.9 09:58:31 38° NW 09:58:31 38° NW 10:03:26 10° N
NOAA 11 4.1 09:55:18 10° NNE 10:00:46 89° WNW 10:02:18 49° SSW
Cosmos 2112 Rocket 3.9 10:01:07 66° WSW 10:01:33 70° WNW 10:06:53 10° N
Cosmos 1340 Rocket 3.6 10:04:12 40° NNW 10:04:12 40° NNW 10:06:50 10° N
ALOS 4.0 10:00:18 10° NNW 10:02:16 20° NW 10:02:16 20° NW
Cosmos 1867 3.4 10:00:54 10° NW 10:06:19 65° WSW 10:11:40 10° SSE
Cosmos 1328 Rocket 3.4 10:08:30 64° S 10:09:09 90° W 10:13:36 10° N
ATLAS 2AS CENTAUR R/B 2.8 10:07:20 38° SW 10:10:35 82° WNW 10:17:56 10° NNE
Cosmos 1805 3.0 10:09:50 10° N 10:13:33 82° E 10:13:51 72° SSE
Delta 128 3.8 10:17:14 48° SSW 10:17:22 48° S 10:21:44 10° ESE
Meteor 2-9 Rocket 4.5 10:12:37 10° NNW 10:17:39 41° W 10:17:39 41° W
Chandra Rocket (1) 2.2 10:18:54 41° SSE 10:18:54 41° SSE 10:24:05 10° E
IRS-1D 3.5 10:18:49 10° N 10:23:53 64° WNW 10:26:05 34° SW
Cosmos 1633 Rocket 3.2 10:19:51 10° N 10:24:11 74° E 10:28:31 10° S
CSL-04 DEB 4.3 10:20:07 10° N 10:24:16 76° WNW 10:25:35 43° SSW
Cosmos 2266 Rocket 4.3 10:21:50 10° S 10:27:53 67° E 10:33:53 10° NNE
Cosmos 1680 Rocket 4.4 10:28:09 30° W 10:28:45 31° WNW 10:33:25 10° N
ASC 2 Rocket 4.3 10:32:35 28° SSW 10:34:11 35° S 10:39:50 10° ESE
Iridium 51 3.7 10:33:29 32° S 10:34:55 83° W 10:38:16 10° N
Cosmos 2278 Rocket 2.5 10:32:02 10° NW 10:37:18 40° WSW 10:42:32 10° S
NOSS 2-2 (C) 4.4 10:33:03 10° NNW 10:38:19 89° WSW 10:45:53 10° SSE
USA 308 3.2 10:41:22 33° W 10:42:19 40° NW 10:46:00 10° NNE
Cosmos 1461 2.8 10:38:45 10° NW 10:42:25 48° WSW 10:46:05 10° S
Cosmos 1674 3.1 10:39:41 10° S 10:43:01 53° E 10:46:22 10° NNE
Delta 2 Rocket 4.2 10:40:59 25° SW 10:43:32 49° SSE 10:48:04 10° E
Cosmos 1420 Rocket 3.9 10:38:28 10° NNW 10:43:44 76° WSW 10:48:59 10° S
Cosmos 494 Rocket 3.9 10:42:24 19° SSW 10:46:04 65° WNW 10:51:12 10° N
ATLAS 5 CENTAUR R/B 3.1 10:42:33 21° WSW 10:46:58 29° SSW 10:50:53 10° SE
Cosmos 2056 Rocket 3.5 10:42:20 10° NNW 10:47:45 85° WSW 10:53:09 10° SSE
SL-16 R/B 2.4 10:45:14 22° SW 10:48:42 51° WNW 10:54:13 10° N
Sakura Rocket 3.9 10:50:19 21° SSW 10:50:46 22° SSW 10:53:45 10° SE
Cosmos 2344 4.5 10:41:22 10° NW 10:50:51 61° WSW 11:04:13 10° S
CZ-2C R/B 3.5 10:47:24 10° NNW 10:51:46 28° WNW 10:53:57 21° WSW
Cosmos 1626 2.7 10:51:53 28° W 10:52:07 28° W 10:55:00 10° NNW
Cosmos 1766 3.2 10:49:54 10° N 10:53:35 76° E 10:57:14 10° S
Cosmos 1939 Rocket 3.5 10:50:23 10° NNE 10:54:04 52° E 10:57:46 10° S
Cosmos 921 Rocket 4.2 10:53:26 21° W 10:54:20 23° WNW 10:57:46 10° NNW
KORONAS-FOTON 4.0 10:51:29 10° S 10:55:08 68° E 10:58:46 10° NNE
Cosmos 1340 2.9 10:52:33 10° NNW 10:55:44 36° W 10:58:35 12° SSW
Cosmos 1553 Rocket 4.2 10:52:08 10° NNW 10:58:04 47° W 11:03:55 10° SSW
Cosmos 1515 Rocket 3.7 10:54:42 10° SSW 10:58:57 52° W 11:03:18 10° N
Cosmos 1624 Rocket 3.9 10:54:54 10° NNW 11:00:03 64° WSW 11:05:09 10° S
Cosmos 1975 3.7 10:57:08 10° NNW 11:00:22 26° W 11:02:30 16° SW
ASTRO E2 3.0 11:00:59 20° SW 11:03:04 45° SSE 11:06:27 10° E
Cosmos 1484 Rocket 2.8 11:05:27 10° N 11:08:54 48° WNW 11:12:20 10° SSW
Cosmos 1470 Rocket 3.7 11:06:06 10° NNW 11:10:21 50° W 11:14:37 10° SSW
CBERS-1 4.2 11:08:57 10° N 11:13:53 52° WNW 11:18:48 10° SSW
ATLAS 5 CENTAUR R/B 3.6 11:08:54 10° NNW 11:14:06 44° ENE 11:20:21 10° SE
H-2A R/B 2.3 11:12:24 10° N 11:15:45 88° WNW 11:19:03 10° SSW
CZ-3 R/B 3.2 11:01:21 13° WSW 11:20:36 54° S 11:27:02 10° E
In-Cosmos 22 4.4 11:17:52 10° S 11:23:11 76° E 11:28:41 10° NNE
YAOGAN 11 4.1 11:23:26 10° S 11:27:51 70° WSW 11:32:22 10° NNW
Cosmos 1842 4.0 11:26:20 10° SW 11:29:36 29° W 11:32:54 10° NNW
COSMO-SKYMED 1 3.9 11:26:43 10° SSE 11:30:51 46° ENE 11:35:01 10° N
USA 290 2.0 11:28:03 10° NNW 11:31:05 60° WSW 11:34:05 10° S
BlueWalker 3 1.9 11:30:17 10° NW 11:34:06 86° SW 11:37:53 10° SE
IRS-1C 4.2 11:28:48 10° NNE 11:34:09 85° WNW 11:39:28 10° SSW
H-2A R/B 2.6 11:31:07 10° N 11:35:42 36° WNW 11:40:23 10° SW
Cosmos 1943 Rocket 3.3 11:31:39 10° NW 11:35:51 22° W 11:40:04 10° SSW
